map of TLH home
TLH - Airport
Location
City:  Tallahassee, Florida, United States
Name:Tallahassee International Airport
ICAO:KTLH
IATA:TLH
FAA LID:TLH

Details
Type:Airport (Part 139 Class I)
Use:Public/Civil
Latitude:3023'48"N (30.396750)
Longitude:8421'03"W (-84.350860)
Datum:WGS 1984
Elevation:83 ft (25 m)
Variation:4.79W (WMM2015 magnetic declination)
-0.10 annual change
Runways:2
Longest:8000 × 150 ft (2438 × 45.5 m), paved

Time
Time Zone:UTC-5 (DST-4)
Local Time:

Weather
METAR:KTLH 190153Z 06006KT 10SM SCT080 26/20 A3023 RMK AO2 SLP236 T02560200
TAF:KTLH 182320Z 1900/1924 01006KT P6SM FEW040 FEW080
FM190800 07004KT P6SM BKN025
FM191800 09005KT P6SM BKN050

Related Locations
Nearby:
Farthest:USL: 11326 mi / 18227 km
Useless Loop, WA, AU

Find:

   beyond  
but within

Other Information
Maps:
Delays:
NOTAMs:
Links:
Sources:

  
  • flag of United States
  • flag of Florida
  

Airport Diagram

Airport diagram for TLH

Airport diagram PDF

Sectional Chart

Flight Planning
at skyvector.com

Satellite Image

Google Maps Satellite view

 

Copyright © 2004-2018 Karl L. Swartz. All rights reserved.
The Great Circle Mapper name and logo are trademarks of the Great Circle Mapper.
All other trademarks mentioned herein belong to their respective owners.
Please see credits for attibutions and further copyright information.

  Follow gcmap on Facebook Follow gcmap on Twitter Follow gcmap on Google+ GCmap on LinkedIn

hCard Microformat

Geo Microformat